Orbital Elements
Epoch 2016 July 31.0 TT = JDT 2457600.5
T 2016 Apr. 29.94112 TT MPCW
q 2.4271143 (2000.0) P Q
n 0.07824491 Peri. 134.19847 +0.22947375 +0.97150033
a 5.4137557 Node 148.92292 -0.92260377 +0.23655582
e 0.5516764 Incl. 6.60839 -0.31007108 +0.01511436
P 12.60
From 1786 observations 1954 Sept. 3-2016 May 17, mean residual 0".7.
Nongravitational parameters A1 = -0.01, A2 = -0.0210.
|